Location: Biharia
(46.4333°N, 22.8000°E)
Time: 21:36:50
(UTC+00:00)

CZ-4C R/B - Pass Details

Date: 16 October 2021
Orbit: 403 x 482 km, 97.7° (Epoch: 29 November)

Event Time Altitude Azimuth Distance (km) Brightness Sun altitude
Rises 17:14:19 0° 7° (N) 2,518 6.7 -16.9°
Reaches altitude 10° 17:16:27 10° 1° (N) 1,624 5.8 -17.3°
Maximum altitude 17:19:47 44° 288° (WNW) 643 4.1 -17.9°
Drops below altitude 10° 17:22:59 10° 215° (SW) 1,567 6.0 -18.4°
Sets 17:25:01 0° 209° (SSW) 2,417 6.9 -18.8°
